Regional Weather Roundup
Issued by NWS Newport/Morehead, NC

Current Version | Previous Version | Text Only | Print | Product List | Glossary On
Versions: 1 2 3 4 5 6 7 8 9 10 11 12 13 14 15 16 17 18 19 20 21 22 23 24 25 26 27 28 29 30 31 32 33 34 35 36 37 38 39 40 41 42 43 44 45 46 47 48 49 50
526
ASUS42 KMHX 221325
RWRMHX
WEATHER ROUNDUP FOR EASTERN NORTH CAROLINA
NATIONAL WEATHER SERVICE NEWPORT/MOREHEAD CITY NC
900 AM EDT SUN APR 22 2018

NOTE: "FAIR" INDICATES FEW OR NO CLOUDS BELOW 12,000 FEET
WITH NO SIGNIFICANT WEATHER AND/OR OBSTRUCTIONS TO VISIBILITY

NCZ015>017-031-032-045>047-102-103-221400-
NORTH COAST

CITY           SKY/WX    TMP DP  RH WIND       PRES   REMARKS
EDENTON        FAIR      60  40  46 E9        30.42R
ELIZABETH CITY FAIR      57  41  55 E6        30.41S
KITTY HAWK     FAIR      53  40  62 CALM      30.41R
MANTEO         FAIR      55  34  45 E6        30.42S

$$

NCZ045>047-081-094-103-104-221400-
CENTRAL COAST

CITY           SKY/WX    TMP DP  RH WIND       PRES   REMARKS
FRISCO         FAIR      59  38  45 N5        30.40S

$$

NCZ095-097-098-100-101-221400-
SOUTHERN COAST

CITY           SKY/WX    TMP DP  RH WIND       PRES   REMARKS
BEAUFORT       FAIR      62  49  62 E7        30.38R
CEDAR ISLAND   NOT AVBL
JACKSONVILLE   FAIR      59  49  69 E6        30.38R
PINEY ISLAND   NOT AVBL
WILMINGTON     FAIR      63  50  62 E10       30.36R


$$

NCZ011>013-027>030-043-044-078>080-089-090>093-098-221400-
COASTAL PLAIN

CITY           SKY/WX    TMP DP  RH WIND       PRES   REMARKS
AHOSKIE        FAIR      54  42  62 SE5       30.41R
CLINTON        FAIR      58  46  63 CALM      30.39R
ELIZABETHTOWN  FAIR      56  45  65 MISG      30.38R
GOLDSBORO      FAIR      56  48  73 E6        30.37R
GREENVILLE     FAIR      55  45  67 E6        30.40R
HAVELOCK       NOT AVBL
KENANSVILLE    FAIR      57  46  67 E5        30.39R
KINSTON        FAIR      57  46  67 SE7       30.39R
NEW BERN       FAIR      57  48  72 E7        30.40R
RICHLANDS      FAIR      58  48  69 E6        30.39R
ROCKY MOUNT    FAIR      54  46  74 VRB5      30.39R
WASHINGTON     FAIR      58  44  58 E7        30.41R
WHITEVILLE     FAIR      59  50  71 E6        30.36R

$$

AMZ130-135-150-152-154-156-158-170-250-252-270-ANZ085-086-088-633-658-670-221400-
MARINE OBSERVATIONS

STATION/POSITION TIME  TEMP    WIND        PRES    WAVE   SWELL
                       AIR SEA DIR/SP/G            HT/PER HT/PER
                 (UTC) (F)     (DEG/KT/KT) (MB)    (FT/S) (FT/S)
CHESAPEAKE LIGHT NOT AVBL
64 E VA BEACH    1250   49 49  350/  6/  8 1030.7    1/ 5   2/ 5
DUCK             1300   52 52   70/  6/  7 1029.6
2 E DUCK         1300      52                N/A     2/17
OREGON INLET     1300   52 54   20/  6/  7 1029.8
13E OREGON INLT  1248      51                N/A     2/ 6   2/ 6
HATTERAS CG      1300   56 61   20/  7/  9 1029.2
DIAMOND BUOY     1300   60 74   10/ 10/ 16 1029.5
CAPE LOOKOUT     1300           70/ 12/ 14 1029.0
BEAUFORT LAB     1300   61 62  110/  8/ 12 1029.0
30 SE NEW RVR IN 1308   64 65   90/ 10/ 14 1028.4
30 SE NEW RVR IN 1300      65                N/A     3/ 7
27 SE WRIGHTSVLE 1308   65 65  100/ 12/ 16 1028.1
5 SE WRIGHTSVLE  1308   62 60   90/  8/ 12 1027.8
225 S CAPE HAT   1300   65 72   70/ 12/ 17 1026.7
41 SE CHARLESTON 1300   68 67  110/ 12/ 14 1026.5

$$




USA.gov is the U.S. government's official web portal to all federal, state and local government web resources and services.